User: anonymous   Login
Location: Unspecified
(0.0000°N, 0.0000°E)
Time: 18:59:28
(UTC+00:00)
Language:

TBA - TO BE ASSIGNED - Orbit

View from above orbital plane
View from above orbital plane
View from above satellite
View from above satellite

Ground track
Ground track

The orbit is defined by the following mean orbital elements,

1 67988U          26145.54159809 +.00000000 +00000-0 +63366-3 0 00007
2 67988  42.9989 335.2224 0000939 254.9296 105.1452 15.27600316    09
Epoch (UTC): 25 May 2026 12:59:54
Eccentricity: 0.0000939
inclination: 42.9989°
perigee height: 482 km
apogee height: 484 km
right ascension of ascending node: 335.2224°
argument of perigee: 254.9296°
revolutions per day: 15.27600316
mean anomaly at epoch: 105.1452°

The dashed part of the orbit path shows where the satellite is in the earth's shadow,  

DLR